Time,TemperatureF,DewpointF,PressureIn,WindDirection,WindDirectionDegrees,WindSpeedMPH,WindSpeedGustMPH,Humidity,HourlyPrecipIn,Conditions,Clouds,dailyrainin,SoftwareType,DateUTC
2013-07-10 07:43:00,76.0,72.0,29.91,West,270,1.0,1.0,86,0.00,,,0.00,,2013-07-10 11:43:00,
2013-07-10 07:52:00,76.0,72.0,29.91,West,270,1.0,1.0,86,0.00,,,0.00,,2013-07-10 11:52:00,
2013-07-10 08:22:00,76.0,72.0,29.91,SW,225,2.0,2.0,86,0.00,,,0.00,,2013-07-10 12:22:00,
2013-07-10 08:33:00,76.0,72.0,29.91,SW,225,2.0,2.0,86,0.00,,,0.00,,2013-07-10 12:33:00,
2013-07-10 08:43:00,76.0,72.0,29.91,SW,225,2.0,2.0,86,0.00,,,0.00,,2013-07-10 12:43:00,
2013-07-10 08:53:00,77.0,73.0,29.90,WSW,247,0.0,0.0,87,0.00,,,0.00,,2013-07-10 12:53:00,
2013-07-10 09:11:00,77.0,72.0,29.91,WSW,247,0.0,0.0,86,0.00,,,0.00,,2013-07-10 13:11:00,
2013-07-10 09:22:00,78.0,73.0,29.92,West,270,0.0,3.0,86,0.00,,,0.00,,2013-07-10 13:22:00,
2013-07-10 09:32:00,79.0,74.0,29.92,WSW,247,0.0,0.0,86,0.00,,,0.00,,2013-07-10 13:32:00,
2013-07-10 09:43:00,79.0,74.0,29.91,WSW,247,0.0,0.0,85,0.00,,,0.00,,2013-07-10 13:43:00,
2013-07-10 09:52:00,79.0,74.0,29.91,WSW,247,0.0,0.0,85,0.00,,,0.00,,2013-07-10 13:52:00,
2013-07-10 10:01:00,79.0,74.0,29.91,WSW,247,0.0,0.0,85,0.00,,,0.00,,2013-07-10 14:01:00,
2013-07-10 10:11:00,79.0,74.0,29.91,WSW,247,0.0,0.0,85,0.00,,,0.00,,2013-07-10 14:11:00,
2013-07-10 10:22:00,79.0,74.0,29.91,WSW,247,0.0,0.0,85,0.00,,,0.00,,2013-07-10 14:22:00,
2013-07-10 10:33:00,79.0,74.0,29.91,WSW,247,0.0,0.0,85,0.00,,,0.00,,2013-07-10 14:33:00,
2013-07-10 10:43:00,81.0,76.0,29.90,West,270,0.0,0.0,85,0.00,,,0.00,,2013-07-10 14:43:00,
2013-07-10 10:53:00,81.0,76.0,29.90,West,270,0.0,0.0,85,0.00,,,0.00,,2013-07-10 14:53:00,
2013-07-10 11:01:00,81.0,76.0,29.90,West,270,0.0,0.0,85,0.00,,,0.00,,2013-07-10 15:01:00,
2013-07-10 11:11:00,81.0,76.0,29.90,West,270,0.0,0.0,85,0.00,,,0.00,,2013-07-10 15:11:00,
2013-07-10 11:22:00,81.0,76.0,29.90,West,270,0.0,0.0,85,0.00,,,0.00,,2013-07-10 15:22:00,
2013-07-10 12:23:00,80.0,73.0,29.90,WNW,292,0.0,0.0,79,0.00,,,0.00,,2013-07-10 16:23:00,
2013-07-10 12:33:00,80.0,73.0,29.90,WNW,292,0.0,0.0,79,0.00,,,0.00,,2013-07-10 16:33:00,
2013-07-10 12:44:00,80.0,73.0,29.90,WNW,292,0.0,0.0,79,0.00,,,0.00,,2013-07-10 16:44:00,
2013-07-10 12:53:00,80.0,73.0,29.90,WNW,292,0.0,0.0,79,0.00,,,0.00,,2013-07-10 16:53:00,
2013-07-10 13:02:00,80.0,73.0,29.90,WNW,292,0.0,0.0,79,0.00,,,0.00,,2013-07-10 17:02:00,
2013-07-10 13:32:00,77.0,70.0,29.88,North,-999,-999.0,-999.0,80,0.00,,,0.00,,2013-07-10 17:32:00,
2013-07-10 13:43:00,77.0,70.0,29.88,North,-999,-999.0,-999.0,80,0.00,,,0.00,,2013-07-10 17:43:00,
2013-07-10 15:11:00,61.0,58.0,30.01,West,270,7.0,7.0,89,0.00,,,0.00,,2013-07-10 19:11:00,
2013-07-10 15:32:00,62.0,59.0,29.98,WNW,292,0.0,2.0,90,0.00,,,0.00,,2013-07-10 19:32:00,
2013-07-10 15:42:00,63.0,60.0,29.97,SW,225,0.0,2.0,90,0.00,,,0.00,,2013-07-10 19:42:00,
2013-07-10 15:52:00,63.0,60.0,29.97,SW,225,0.0,0.0,90,0.00,,,0.00,,2013-07-10 19:52:00,
2013-07-10 16:01:00,64.0,61.0,29.95,West,270,1.0,1.0,91,0.00,,,0.00,,2013-07-10 20:01:00,
2013-07-10 16:11:00,64.0,61.0,29.93,West,270,1.0,1.0,91,0.00,,,0.00,,2013-07-10 20:11:00,
2013-07-10 16:22:00,67.0,64.0,29.92,WNW,292,6.0,6.0,91,0.00,,,0.00,,2013-07-10 20:22:00,
2013-07-10 16:32:00,67.0,64.0,29.91,WNW,292,6.0,6.0,91,0.00,,,0.00,,2013-07-10 20:32:00,
2013-07-10 16:43:00,68.0,65.0,29.91,North,-999,-999.0,-999.0,91,0.00,,,0.00,,2013-07-10 20:43:00,
2013-07-10 16:52:00,68.0,65.0,29.91,North,-999,-999.0,-999.0,91,0.00,,,0.00,,2013-07-10 20:52:00,
2013-07-10 17:01:00,68.0,65.0,29.91,North,-999,-999.0,-999.0,91,0.00,,,0.00,,2013-07-10 21:01:00,
2013-07-10 17:11:00,68.0,65.0,29.91,North,-999,-999.0,-999.0,91,0.00,,,0.00,,2013-07-10 21:11:00,
2013-07-10 17:22:00,74.0,71.0,29.86,NW,315,0.0,0.0,90,0.00,,,0.00,,2013-07-10 21:22:00,
2013-07-10 17:32:00,74.0,71.0,29.86,NNW,337,0.0,0.0,91,0.00,,,0.00,,2013-07-10 21:32:00,
2013-07-10 17:42:00,75.0,72.0,29.86,NW,315,6.0,6.0,90,0.00,,,0.00,,2013-07-10 21:42:00,
2013-07-10 17:52:00,75.0,72.0,29.87,NNW,337,0.0,6.0,89,0.00,,,0.00,,2013-07-10 21:52:00,
2013-07-10 18:11:00,75.0,72.0,29.87,NNW,337,0.0,0.0,89,0.00,,,0.00,,2013-07-10 22:11:00,
2013-07-10 18:21:00,75.0,72.0,29.87,NE,45,0.0,0.0,89,0.00,,,0.00,,2013-07-10 22:21:00,
2013-07-10 18:42:00,75.0,71.0,29.87,NNE,22,0.0,0.0,88,0.00,,,0.00,,2013-07-10 22:42:00,
2013-07-10 19:01:00,75.0,71.0,29.89,NW,315,0.0,0.0,88,0.00,,,0.00,,2013-07-10 23:01:00,
2013-07-10 19:11:00,75.0,71.0,29.89,NW,315,0.0,0.0,87,0.00,,,0.00,,2013-07-10 23:11:00,
2013-07-10 19:22:00,74.0,70.0,29.90,NW,315,0.0,0.0,87,0.00,,,0.00,,2013-07-10 23:22:00,
2013-07-10 19:32:00,74.0,70.0,29.90,NW,315,0.0,0.0,87,0.00,,,0.00,,2013-07-10 23:32:00,
2013-07-10 19:43:00,74.0,70.0,29.90,NW,315,0.0,0.0,87,0.00,,,0.00,,2013-07-10 23:43:00,
2013-07-10 19:52:00,73.0,69.0,29.91,NNW,337,0.0,0.0,86,0.00,,,0.00,,2013-07-10 23:52:00,
2013-07-10 20:01:00,73.0,69.0,29.92,NNW,337,0.0,0.0,86,0.00,,,0.00,,2013-07-11 00:01:00,
2013-07-10 20:11:00,73.0,69.0,29.93,NW,315,0.0,0.0,86,0.00,,,0.00,,2013-07-11 00:11:00,
2013-07-10 20:22:00,73.0,68.0,29.93,WNW,292,0.0,0.0,85,0.00,,,0.00,,2013-07-11 00:22:00,
2013-07-10 20:32:00,73.0,68.0,29.94,West,270,0.0,0.0,84,0.00,,,0.00,,2013-07-11 00:32:00,
2013-07-10 20:42:00,73.0,68.0,29.94,West,270,0.0,0.0,84,0.00,,,0.00,,2013-07-11 00:42:00,
2013-07-10 20:52:00,72.0,67.0,29.95,West,270,0.0,0.0,84,0.00,,,0.00,,2013-07-11 00:52:00,
2013-07-10 21:01:00,72.0,67.0,29.95,WNW,292,0.0,0.0,84,0.00,,,0.00,,2013-07-11 01:01:00,
2013-07-10 21:11:00,71.0,66.0,29.96,WNW,292,0.0,0.0,84,0.00,,,0.00,,2013-07-11 01:11:00,
2013-07-10 21:32:00,71.0,66.0,29.96,WNW,292,0.0,0.0,84,0.00,,,0.00,,2013-07-11 01:32:00,
2013-07-10 21:43:00,70.0,65.0,29.97,NW,315,0.0,0.0,84,0.00,,,0.00,,2013-07-11 01:43:00,
2013-07-10 21:52:00,69.0,64.0,29.98,NW,315,0.0,0.0,85,0.00,,,0.00,,2013-07-11 01:52:00,
2013-07-10 22:02:00,69.0,64.0,29.98,West,270,0.0,0.0,85,0.00,,,0.00,,2013-07-11 02:02:00,
2013-07-10 22:11:00,68.0,63.0,29.99,West,270,0.0,0.0,85,0.00,,,0.00,,2013-07-11 02:11:00,
2013-07-10 22:22:00,68.0,63.0,29.99,West,270,0.0,0.0,85,0.00,,,0.00,,2013-07-11 02:22:00,
2013-07-10 22:43:00,67.0,62.0,30.00,West,270,0.0,0.0,84,0.00,,,0.00,,2013-07-11 02:43:00,
2013-07-10 23:02:00,67.0,62.0,30.01,West,270,0.0,0.0,84,0.00,,,0.00,,2013-07-11 03:02:00,
2013-07-10 23:42:00,65.0,60.0,30.02,West,270,0.0,0.0,85,0.00,,,0.00,,2013-07-11 03:42:00,
2013-07-10 23:52:00,65.0,60.0,30.02,West,270,0.0,0.0,85,0.00,,,0.00,,2013-07-11 03:52:00,